Tracking 18980 objects as of 20-Feb-2018
HD Live streaming from Space Station
objects crossing your sky now

GEOSAT

Track GEOSAT now!
10-day predictions
GEOSAT is classified as:


NORAD ID: 15595
Int'l Code: 1985-021A
Perigee: 770.3 km
Apogee: 773.8 km
Inclination: 108.0 °
Period: 100.1 minutes
Semi major axis: 7143 km
RCS: 9.5926 m2 (large)
Launch date: March 13, 1985
Source: United States (US)
Launch site: AIR FORCE WESTERN TEST RANGE (AFWTR)
aabbcc
Your satellite tracking list
Your tracking list is empty




NASA's NSSDC Master Catalog

Two Line Element Set (TLE):
1 15595U 85021A   18050.51887692 -.00000075 +00000-0 +19829-4 0  9997
2 15595 108.0404 248.8689 0002436 282.0798 145.7241 14.38060892725672
Source of the keplerian elements: AFSPC